Kaltag, AK

7:23 AM AKST on December 07, 2016 (GMT -0900)
Kaltag

Weather History for PAKV - February, 2012

Change the Weather History Date:

Monday, February 27, 2012

  Actual Average (PAGA) Record (PAGA)
Temperature  
Mean Temperature -10 °F -  
Max Temperature 1 °F 8 °F 37 °F (1970)
Min Temperature -23 °F -12 °F -45 °F (1956)
Degree Days  
Heating Degree Days 74    
Moisture  
Dew Point -16 °F    
Average Humidity 62    
Maximum Humidity 78    
Minimum Humidity 54    
Precipitation  
Precipitation 0.00 in - - ()
Sea Level Pressure  
Sea Level Pressure 29.85 in    
Wind  
Wind Speed 6 mph (NNW)    
Max Wind Speed 9 mph    
Max Gust Speed -    
Visibility 10 miles    
Events      
Averages and records for this station are not official NWS values.
T = Trace of Precipitation, MM = Missing Value Source: NWS Daily Summary

Daily Weather History Graph

Daily Weather History Graph

Search for Another Location

Airport or City:

Trip Planner

Search our weather history database for the weather conditions in past years. The results will help you decide how hot, cold, wet, or windy it might be!

Date:

Astronomy

Feb. 27, 2012 Rise Set
Actual Time 8:50 AM AKST 6:45 PM AKST
Civil Twilight 8:02 AM AKST 7:34 PM AKST
Nautical Twilight 7:06 AM AKST 8:30 PM AKST
Astronomical Twilight 6:10 AM AKST 9:27 PM AKST
Moon 8:59 AM AKST (2/27) 2:15 AM AKST (2/27)
Length of Visible Light 11h 32m
Length of Day
9h 55m
Waxing Crescent, 30% of the Moon is Illuminated
Feb 27
Waxing Crescent
Feb 29
First Quarter
Mar 8
Full
Mar 14
Last Quarter
Mar 22
New

Hourly Weather History & Observations

Time (AKST) Temp. Windchill Dew Point Humidity Pressure Visibility Wind Dir Wind Speed Gust Speed Precip Events Conditions
12:53 AM 1.9 °F -10.6 °F -6.0 °F 69% 29.61 in 10.0 mi NNE 6.9 mph - 0.00 in   Overcast
1:53 AM -2.0 °F -12.2 °F -9.0 °F 72% 29.62 in 10.0 mi North 4.6 mph - N/A   Overcast
3:53 AM -0.9 °F -14.1 °F -11.0 °F 62% 29.65 in 10.0 mi North 6.9 mph - N/A   Scattered Clouds
4:53 AM -2.9 °F -17.7 °F -13.0 °F 62% 29.67 in 10.0 mi North 8.1 mph - N/A   Clear
5:53 AM -4.0 °F -19.0 °F -15.0 °F 59% 29.69 in 10.0 mi North 8.1 mph - N/A   Clear
6:53 AM -5.1 °F -21.5 °F -16.1 °F 59% 29.71 in 10.0 mi North 9.2 mph - N/A   Clear
7:53 AM -7.1 °F -22.8 °F -18.0 °F 59% 29.73 in 10.0 mi North 8.1 mph - N/A   Scattered Clouds
8:53 AM -7.1 °F -18.1 °F -18.0 °F 59% 29.75 in 10.0 mi NW 4.6 mph - N/A   Mostly Cloudy
9:53 AM -6.0 °F - -17.0 °F 59% 29.78 in 10.0 mi Calm Calm - N/A   Overcast
10:53 AM -9.0 °F -22.3 °F -17.0 °F 68% 29.81 in 10.0 mi SW 5.8 mph - N/A   Overcast
11:53 AM -5.1 °F -13.6 °F -14.1 °F 65% 29.84 in 10.0 mi SE 3.5 mph - N/A   Overcast
12:53 PM -2.9 °F - -13.0 °F 62% 29.86 in 10.0 mi Calm Calm - N/A   Overcast
1:53 PM -2.0 °F -10.1 °F -13.0 °F 60% 29.88 in 10.0 mi East 3.5 mph - N/A   Mostly Cloudy
2:53 PM -0.9 °F -14.1 °F -14.1 °F 54% 29.90 in 10.0 mi NE 6.9 mph - N/A   Overcast
3:53 PM -2.0 °F -17.7 °F -15.0 °F 54% 29.93 in 10.0 mi NNW 9.2 mph - N/A   Overcast
4:53 PM -4.0 °F -20.2 °F -17.0 °F 54% 29.95 in 10.0 mi NNW 9.2 mph - N/A   Overcast
5:53 PM -5.1 °F -17.6 °F -18.0 °F 54% 29.97 in 10.0 mi NNW 5.8 mph - N/A   Overcast
6:53 PM -8.0 °F - -18.9 °F 59% 30.00 in 10.0 mi Calm Calm - N/A   Overcast
7:53 PM -7.1 °F -18.1 °F -18.9 °F 56% 30.01 in 10.0 mi WNW 4.6 mph - N/A   Overcast
8:53 PM -9.9 °F - -20.0 °F 61% 30.03 in 10.0 mi Calm Calm - N/A   Overcast
9:53 PM -16.1 °F -28.6 °F -22.0 °F 74% 30.05 in 10.0 mi SW 4.6 mph - N/A   Scattered Clouds
10:53 PM -20.9 °F - -26.0 °F 77% 30.07 in 10.0 mi Calm Calm - N/A   Clear
11:53 PM -23.1 °F -34.2 °F -27.9 °F 78% 30.09 in 10.0 mi SSW 3.5 mph - N/A   Mostly Cloudy